Change the Weather History Date:

Friday, September 28, 2012

  Actual Average Record
Temperature  
Mean Temperature 57 °F 54 °F  
Max Temperature 67 °F 64 °F 86 °F (1989)
Min Temperature 46 °F 45 °F 30 °F (1983)
Degree Days  
Heating Degree Days 8 11  
Month to date heating degree days 234  
Since 1 July heating degree days 603  
Cooling Degree Days 0 0  
Month to date cooling degree days 0  
Year to date cooling degree days 17  
Growing Degree Days 7 (Base 50)    
Moisture  
Dew Point 51 °F    
Average Humidity 84    
Maximum Humidity 94    
Minimum Humidity 45    
Precipitation  
Precipitation 0.02 in 0.17 in 1.93 in (2013)
Month to date precipitation 3.46  
Year to date precipitation 60.18  
Sea Level Pressure  
Sea Level Pressure 30.01 in    
Wind  
Wind Speed 2 mph (West)    
Max Wind Speed 10 mph    
Max Gust Speed 14 mph    
Visibility 4 miles    
Events Rain    
T = Trace of Precipitation, MM = Missing Value Source: NWS Daily Summary

Daily Weather History Graph

Daily Weather History Graph

Search for Another Location

Airport or City:

Trip Planner

Search our weather history database for the weather conditions in past years. The results will help you decide how hot, cold, wet, or windy it might be!

Date:

Astronomy

Sep. 28, 2012 Rise Set
Actual Time 7:14 AM PDT 7:02 PM PDT
Civil Twilight 6:43 AM PDT 7:33 PM PDT
Nautical Twilight 6:07 AM PDT 8:09 PM PDT
Astronomical Twilight 5:30 AM PDT 8:45 PM PDT
Moon 6:07 PM PDT 5:47 AM PDT
Length of Visible Light 12h 50m
Length of Day
11h 48m
Waxing Gibbous, 98% of the Moon is Illuminated
Sep 28
Waxing Gibbous
Sep 29
Full
Oct 8
Last Quarter
Oct 15
New
Oct 21
First Quarter

Hourly Weather History & Observations

Time (PDT) Temp. Dew Point Humidity Pressure Visibility Wind Dir Wind Speed Gust Speed Precip Events Conditions
12:53 AM 53.1 °F 46.9 °F 80% 29.96 in 8.0 mi Calm Calm - N/A   Clear
1:53 AM 52.0 °F 46.9 °F 83% 29.95 in 8.0 mi Calm Calm - N/A   Clear
2:53 AM 51.1 °F 46.9 °F 86% 29.95 in 8.0 mi Calm Calm - N/A   Clear
3:53 AM 50.0 °F 46.9 °F 89% 29.95 in 7.0 mi Calm Calm - N/A   Clear
4:53 AM 48.9 °F 46.0 °F 90% 29.96 in 7.0 mi Calm Calm - N/A   Clear
5:53 AM 48.9 °F 46.0 °F 90% 29.95 in 7.0 mi Calm Calm - N/A   Clear
6:53 AM 48.9 °F 45.0 °F 86% 29.97 in 7.0 mi Calm Calm - N/A   Clear
7:53 AM 50.0 °F 46.9 °F 89% 29.97 in 5.0 mi Calm Calm - N/A   Clear
8:53 AM 54.0 °F 48.9 °F 83% 29.98 in 6.0 mi Calm Calm - N/A   Haze
9:53 AM 59.0 °F 48.9 °F 69% 29.99 in 7.0 mi Calm Calm - N/A   Clear
10:53 AM 64.9 °F 48.9 °F 56% 29.99 in 8.0 mi Calm Calm - N/A   Mostly Cloudy
11:02 AM 66.2 °F 48.2 °F 52% 29.99 in 8.0 mi Calm Calm - N/A   Scattered Clouds
11:53 AM 66.9 °F 52.0 °F 59% 30.00 in 8.0 mi SW 5.8 mph - N/A   Overcast
12:53 PM 64.9 °F 54.0 °F 68% 30.01 in 7.0 mi West 8.1 mph - N/A   Overcast
1:38 PM 62.6 °F 57.2 °F 82% 30.00 in 2.5 mi WSW 5.8 mph - N/A   Haze
1:53 PM 63.0 °F 57.9 °F 84% 30.00 in 1.8 mi West 4.6 mph - N/A   Haze
2:00 PM 62.6 °F 57.2 °F 82% 30.00 in 2.0 mi WSW 3.5 mph - N/A   Haze
2:10 PM 62.6 °F 57.2 °F 82% 30.00 in 4.0 mi WSW 5.8 mph - N/A   Haze
2:21 PM 62.6 °F 57.2 °F 82% 30.00 in 3.0 mi SW 5.8 mph - N/A   Haze
2:44 PM 62.6 °F 57.2 °F 82% 30.00 in 1.8 mi WSW 4.6 mph - 0.00 in Rain Light Rain
2:53 PM 62.1 °F 59.0 °F 90% 30.01 in 1.5 mi WSW 5.8 mph - 0.00 in Rain Light Rain
3:07 PM 60.8 °F 57.2 °F 88% 30.00 in 2.5 mi WSW 5.8 mph - N/A   Overcast
3:17 PM 62.6 °F 57.2 °F 82% 30.00 in 3.0 mi WSW 6.9 mph - N/A   Overcast
3:53 PM 62.1 °F 57.0 °F 84% 30.00 in 3.0 mi West 6.9 mph - N/A   Haze
4:36 PM 59.0 °F 57.2 °F 94% 30.00 in 2.0 mi West 9.2 mph - 0.00 in Rain Light Rain
4:43 PM 60.8 °F 57.2 °F 88% 30.00 in 1.2 mi WSW 8.1 mph - 0.01 in Rain Light Rain
4:53 PM 59.0 °F 57.0 °F 93% 30.01 in 1.5 mi West 5.8 mph - 0.01 in Rain Light Rain
5:05 PM 57.2 °F 55.4 °F 94% 30.01 in 1.2 mi West 8.1 mph - 0.00 in Rain Light Rain
5:11 PM 57.2 °F 55.4 °F 94% 30.01 in 2.0 mi West 5.8 mph - 0.00 in Rain Light Rain
5:29 PM 57.2 °F 55.4 °F 94% 30.01 in 1.8 mi West 5.8 mph - 0.01 in Rain Light Rain
5:38 PM 57.2 °F 53.6 °F 88% 30.01 in 2.0 mi WNW 5.8 mph - 0.01 in   Overcast
5:53 PM 55.9 °F 54.0 °F 93% 30.01 in 2.0 mi NW 5.8 mph - 0.01 in   Overcast
6:19 PM 55.4 °F 53.6 °F 94% 30.02 in 4.0 mi West 4.6 mph - N/A   Overcast
6:53 PM 54.0 °F 52.0 °F 93% 30.02 in 3.0 mi WNW 8.1 mph - N/A   Overcast
7:37 PM 53.6 °F 50.0 °F 88% 30.02 in 6.0 mi NNW 6.9 mph - N/A   Overcast
7:53 PM 53.1 °F 50.0 °F 89% 30.03 in 6.0 mi NNW 4.6 mph - N/A   Overcast
8:53 PM 54.0 °F 50.0 °F 86% 30.05 in 6.0 mi WNW 3.5 mph - N/A   Overcast
9:03 PM 53.6 °F 50.0 °F 88% 30.05 in 6.0 mi NW 3.5 mph - N/A   Overcast
9:26 PM 53.6 °F 50.0 °F 88% 30.05 in 6.0 mi NW 5.8 mph - N/A   Overcast
9:35 PM 53.6 °F 50.0 °F 88% 30.05 in 6.0 mi Calm Calm - N/A   Overcast
9:53 PM 53.1 °F 50.0 °F 89% 30.06 in 6.0 mi Calm Calm - N/A   Overcast
10:11 PM 51.8 °F 48.2 °F 88% 30.06 in 6.0 mi Calm Calm - N/A   Scattered Clouds
10:53 PM 51.1 °F 48.0 °F 89% 30.09 in 6.0 mi Calm Calm - N/A   Clear
11:31 PM 50.0 °F 46.4 °F 87% 30.09 in 2.0 mi Calm Calm - N/A   Partly Cloudy
11:41 PM 48.2 °F 46.4 °F 93% 30.10 in 4.0 mi Calm Calm - N/A   Mostly Cloudy
11:51 PM 48.2 °F 44.6 °F 87% 30.10 in 1.8 mi Calm Calm - N/A   Mostly Cloudy
11:53 PM 48.0 °F 45.0 °F 89% 30.10 in 1.5 mi Calm Calm - N/A   Mostly Cloudy